GFSNIL_sfc_temp_132.txt.gz
Temp
69 70 69 69 68 67 67 68 69 67 67 66 65 65 65 64 63 63 62 62 62 63
68 69 69 69 69 69 68 69 67 66 65 65 65 64 65 64 64 64 63 62 62 61
64 66 68 69 67 68 68 68 65 64 65 64 64 64 63 64 65 64 63 63 62 62
61 63 64 66 67 67 67 64 64 64 65 64 64 64 62 63 64 62 62 62 61 60
60 61 61 62 62 63 63 64 63 64 64 65 65 64 62 62 62 62 60 60 59 59
57 58 59 60 61 61 61 61 62 62 61 62 62 62 62 62 61 60 60 59 58 58
55 56 57 59 59 62 62 61 60 60 60 60 60 60 60 60 59 59 58 58 58 57
52 54 53 52 53 53 52 53 53 55 56 57 57 57 58 58 57 57 56 54 55 54
49 47 47 47 45 46 46 47 46 46 46 48 48 42 43 46 52 51 50 50 46 42
44 43 42 41 41 41 43 43 42 42 43 42 42 42 42 41 47 47 46 44 41 38
39 38 37 37 40 40 40 40 39 39 40 39 39 41 41 40 42 41 40 39 38 38
36 36 37 37 39 39 38 37 37 36 34 34 35 40 40 39 36 35 34 35 36 37
36 36 37 38 36 34 34 33 33 33 33 33 34 39 39 37 34 33 33 33 34 35
35 35 36 35 33 33 33 33 33 33 32 33 33 36 39 39 34 34 33 32 32 33

GFSNIL_sfc_temp_138.txt.gz
Temp
57 59 62 65 66 66 66 66 67 67 66 66 65 65 65 63 62 63 62 62 62 62
58 57 58 60 63 66 66 67 66 65 64 65 65 64 64 63 62 62 62 62 62 62
55 57 58 58 59 61 64 64 64 64 63 64 64 64 63 63 63 62 62 62 61 61
50 53 56 57 58 59 60 62 62 63 63 63 63 63 63 62 62 61 61 61 60 60
47 49 51 53 56 57 56 58 60 61 61 61 61 62 62 62 61 60 60 60 60 60
43 45 45 47 51 53 54 55 57 57 58 59 60 61 61 61 61 61 60 61 60 60
41 41 39 41 44 46 49 50 53 54 55 56 58 58 59 60 60 60 60 60 60 59
40 40 39 38 39 40 42 44 47 48 50 51 52 53 50 55 58 58 58 58 58 58
37 36 36 37 37 38 38 41 41 43 44 44 47 44 42 42 47 50 51 54 53 53
33 30 32 34 36 36 38 40 41 41 42 42 42 42 42 40 42 45 48 47 46 43
26 26 28 30 33 35 37 38 39 40 42 41 41 41 41 40 41 42 42 42 42 41
23 24 25 26 30 33 34 36 37 38 38 37 37 40 40 40 37 36 37 37 37 39
22 22 22 24 27 31 34 34 35 35 36 35 35 37 39 39 35 34 34 34 35 34
20 19 21 23 27 29 33 34 34 35 35 34 34 35 38 40 35 35 34 34 33 33

GFSNIL_sfc_temp_141.txt.gz
Temp
52 54 55 57 58 59 61 64 65 64 65 65 65 64 64 63 63 63 62 61 62 62
49 50 52 54 57 58 59 61 63 64 64 64 64 64 64 62 62 62 62 61 61 61
46 47 49 51 52 54 57 58 58 60 62 62 63 63 63 62 63 62 61 61 61 61
43 44 45 45 47 49 51 53 54 56 58 60 61 62 62 62 62 61 61 61 60 60
40 43 41 40 41 43 45 47 49 52 55 57 59 61 61 61 62 60 60 60 60 59
38 38 38 38 39 41 41 41 44 47 49 52 55 58 59 60 60 60 61 60 60 60
35 35 36 36 37 38 40 40 41 42 44 47 50 52 55 55 57 59 60 60 60 60
32 33 33 32 33 35 38 40 41 41 42 43 45 48 47 47 49 50 52 57 58 59
28 28 28 28 29 30 33 37 39 40 41 41 43 43 42 42 43 44 46 49 51 51
24 24 25 26 26 27 29 33 36 38 39 40 42 42 42 41 43 42 43 44 46 45
21 21 23 23 24 25 26 29 32 35 37 38 39 41 41 40 41 41 41 42 42 41
20 20 20 20 21 22 24 27 30 33 34 35 36 39 40 39 37 37 37 38 38 39
19 18 17 18 19 21 23 26 29 32 34 34 35 37 38 38 36 35 36 36 36 35
16 16 18 19 19 20 21 25 27 32 34 34 35 36 38 39 36 35 35 35 35 36

GFSNIL_sfc_temp_147.txt.gz
Temp
44 45 45 45 45 46 46 48 50 49 52 53 55 58 60 62 62 62 61 61 61 61
41 42 42 43 43 43 44 46 45 46 46 48 51 54 57 58 60 62 61 60 60 60
39 39 40 41 39 39 41 42 42 43 44 46 47 49 51 53 56 58 60 62 61 60
36 36 37 37 37 37 38 38 39 41 42 44 45 47 46 48 51 52 54 56 58 60
34 33 33 33 33 34 34 36 36 38 40 42 43 45 45 44 46 48 46 48 50 52
30 30 29 30 31 32 32 33 34 35 36 37 40 42 44 45 45 44 44 45 46 47
28 27 28 29 29 29 30 30 31 32 33 34 37 40 43 43 42 43 44 44 45 45
26 27 27 27 27 28 29 29 29 29 30 32 36 40 39 39 40 41 42 44 45 45
25 25 25 25 25 26 26 26 27 27 28 29 33 35 36 37 37 37 38 40 42 44
23 22 23 23 23 23 23 25 24 25 28 29 31 34 36 36 36 36 37 38 40 41
20 20 21 21 22 22 23 23 24 27 29 30 33 36 37 36 36 36 37 38 38 38
18 18 19 19 20 22 22 23 25 28 29 28 28 33 34 35 34 34 35 37 38 38
17 16 17 19 19 20 22 24 26 27 27 26 26 30 32 33 32 31 33 36 37 37
15 16 19 18 18 20 22 23 22 23 23 25 25 26 30 32 30 28 29 32 33 35